Date String (YYYY-MM-DD hh:mm:ss) UTC,Instrument flags,Ambient pressure (hPa),Sample flow (lpm),Bypass flow (lpm),Sample temperature (°C),Ambient temperature (°C),ASC tube jacket temperature (°C),LED temperature (°C),Box temperature (°C),Sample RH (%),Span deviation,Mass concentration (μg/m³),Mass concentration (μg/m³),Mass concentration (μg/m³)
DateTimeUTC,F1_M11,P_M11,Q1_M11,Q2_M11,T1_M11,T2_M11,T3_M11,T4_M11,T5_M11,U1_M11,ZSPAN_M11,X0_M11,X2_M11,X1_M11
2022-12-18 11:00:00,,0819.3,4.98,0.00,21.8,20.3,00.0,30.8,23.5,04.8,0000.0,0006.82,0002.44,0001.69
2022-12-18 11:01:00,,0819.3,4.99,0.00,21.8,20.1,00.0,30.8,23.4,04.7,0000.0,0006.89,0002.37,0001.63
2022-12-18 11:02:00,,0819.2,5.02,0.00,21.8,20.2,00.0,30.7,23.4,04.9,0000.0,0005.91,0002.23,0001.57
2022-12-18 11:03:00,,0819.2,4.96,0.00,21.8,21.3,00.0,30.7,23.7,05.1,0000.0,0004.79,0001.97,0001.41
2022-12-18 11:04:00,,0819.2,5.03,0.00,22.0,22.2,00.0,30.7,23.9,05.1,0000.0,0004.08,0001.83,0001.32
2022-12-18 11:05:00,,0819.4,4.95,0.00,22.0,22.0,00.0,30.8,24.0,05.0,0000.0,0004.01,0001.79,0001.30
2022-12-18 11:06:00,,0819.4,5.04,0.00,22.0,21.6,00.0,30.8,23.9,05.0,0000.0,0004.00,0001.78,0001.30
2022-12-18 11:07:00,,0819.2,4.96,0.00,22.0,21.1,00.0,30.8,23.7,05.3,0000.0,0004.10,0001.80,0001.31
2022-12-18 11:08:00,,0819.3,5.02,0.00,22.0,20.8,00.0,30.8,23.7,04.9,0000.0,0004.00,0001.76,0001.29
2022-12-18 11:09:00,,0819.3,4.95,0.00,21.9,20.6,00.0,30.8,23.6,04.6,0000.0,0003.95,0001.71,0001.24
2022-12-18 11:10:00,,0819.3,5.03,0.00,21.9,20.5,00.0,30.8,23.6,04.3,0000.0,0003.79,0001.62,0001.19
2022-12-18 11:11:00,,0819.2,5.03,0.00,21.9,20.3,00.0,30.8,23.5,04.4,0000.0,0003.59,0001.55,0001.14
2022-12-18 11:12:00,,0819.3,4.95,0.00,21.8,20.3,00.0,30.8,23.5,04.9,0000.0,0003.04,0001.51,0001.15
2022-12-18 11:13:00,,0819.3,5.03,0.00,21.8,20.3,00.0,30.8,23.5,05.5,0000.0,0003.40,0001.69,0001.29
2022-12-18 11:14:00,,0819.4,5.01,0.00,21.9,21.2,00.0,30.7,23.7,05.7,0000.0,0004.39,0001.94,0001.44
2022-12-18 11:15:00,,0819.4,4.98,0.00,22.0,22.1,00.0,30.7,24.0,05.7,0000.0,0005.00,0002.12,0001.59
2022-12-18 11:16:00,,0819.2,4.97,0.00,22.1,22.1,00.0,30.8,24.1,05.6,0000.0,0005.51,0002.34,0001.73
2022-12-18 11:17:00,,0819.3,5.04,0.00,22.1,21.7,00.0,30.8,24.0,05.6,0000.0,0005.85,0002.53,0001.87
2022-12-18 11:18:00,,0819.3,4.96,0.00,22.1,21.2,00.0,30.8,23.9,05.6,0000.0,0006.47,0002.71,0002.00
2022-12-18 11:19:00,,0819.3,5.02,0.00,22.0,20.9,00.0,30.8,23.8,05.6,0000.0,0007.57,0002.99,0002.17
2022-12-18 11:20:00,,0819.3,5.02,0.00,22.0,20.6,00.0,30.8,23.7,05.9,0000.0,0008.18,0003.25,0002.43
2022-12-18 11:21:00,,0819.2,4.96,0.00,22.0,20.4,00.0,30.8,23.7,06.0,0000.0,0009.30,0003.53,0002.78
2022-12-18 11:22:00,,0819.3,5.02,0.00,21.9,20.4,00.0,30.8,23.6,06.0,0000.0,0010.28,0003.76,0003.09
2022-12-18 11:23:00,,0819.3,5.03,0.00,21.9,20.4,00.0,30.8,23.6,06.1,0000.0,0010.73,0003.99,0003.27
2022-12-18 11:24:00,,0819.4,4.96,0.00,21.9,20.3,00.0,30.8,23.6,06.0,0000.0,0010.95,0004.09,0003.35
2022-12-18 11:25:00,,0819.3,5.00,0.00,21.9,20.3,00.0,30.8,23.6,06.0,0000.0,0011.52,0004.12,0003.40
2022-12-18 11:26:00,,0819.3,5.02,0.00,21.9,20.2,00.0,30.8,23.6,06.0,0000.0,0011.88,0004.20,0003.45
2022-12-18 11:27:00,,0819.3,4.98,0.00,21.9,20.8,00.0,30.8,23.7,05.8,0000.0,0012.15,0004.26,0003.49
2022-12-18 11:28:00,,0819.3,5.01,0.00,22.0,21.8,00.0,30.7,23.9,05.9,0000.0,0012.39,0004.36,0003.55
2022-12-18 11:29:00,,0819.3,4.97,0.00,22.1,22.1,00.0,30.8,24.1,06.0,0000.0,0012.32,0004.45,0003.63
2022-12-18 11:30:00,,0819.4,5.03,0.00,22.1,21.7,00.0,30.8,24.0,06.0,0000.0,0012.02,0004.50,0003.70
2022-12-18 11:31:00,,0819.4,4.96,0.00,22.1,21.3,00.0,30.8,23.9,06.1,0000.0,0012.00,0004.58,0003.76
2022-12-18 11:32:00,,0819.4,5.03,0.00,22.0,20.9,00.0,30.9,23.8,06.2,0000.6,0011.46,0004.57,0003.80
2022-12-18 11:33:00,,0819.3,5.02,0.00,22.0,20.5,00.0,30.9,23.6,06.3,0002.1,0010.88,0004.62,0003.84
2022-12-18 11:34:00,,0819.3,4.96,0.00,21.9,20.2,00.0,30.8,23.5,06.3,0001.1,0010.73,0004.65,0003.88
2022-12-18 11:35:00,,0819.4,5.04,0.00,21.9,20.0,00.0,30.8,23.4,06.3,0000.0,0011.19,0004.69,0003.91
2022-12-18 11:36:00,,0819.3,5.03,0.00,21.8,19.8,00.0,30.8,23.4,06.4,0000.0,0011.76,0004.78,0003.96
2022-12-18 11:37:00,,0819.2,4.97,0.00,21.7,19.8,00.0,30.8,23.3,06.5,0000.5,0011.53,0004.84,0004.01
2022-12-18 11:38:00,,0819.4,5.02,0.00,21.8,20.8,00.0,30.7,23.5,06.4,0001.6,0011.21,0004.91,0004.09
2022-12-18 11:39:00,,0819.5,5.03,0.00,21.9,21.9,00.0,30.7,23.8,06.3,0001.8,0011.20,0004.97,0004.17
2022-12-18 11:40:00,,0819.5,4.97,0.00,22.0,21.7,00.0,30.7,23.9,06.3,0001.5,0011.72,0005.02,0004.22
2022-12-18 11:41:00,,0819.4,5.02,0.00,21.9,21.1,00.0,30.8,23.7,06.4,0000.7,0011.85,0005.08,0004.24
2022-12-18 11:42:00,,0819.5,4.96,0.00,21.9,20.6,00.0,30.8,23.5,06.4,0000.0,0012.01,0005.13,0004.28
2022-12-18 11:43:00,,0819.4,5.03,0.00,21.9,20.3,00.0,30.8,23.5,06.4,0000.0,0012.22,0005.21,0004.33
2022-12-18 11:44:00,,0819.4,4.97,0.00,21.8,20.2,00.0,30.7,23.5,06.4,0000.0,0013.09,0005.20,0004.35
2022-12-18 11:45:00,,0819.3,5.00,0.00,21.8,20.1,00.0,30.7,23.4,06.4,0000.0,0013.27,0005.23,0004.39
2022-12-18 11:46:00,,0819.4,5.03,0.00,21.8,20.1,00.0,30.7,23.4,06.4,0000.0,0012.83,0005.26,0004.43
2022-12-18 11:47:00,,0819.4,4.98,0.00,21.7,20.0,00.0,30.7,23.4,06.4,0000.0,0012.56,0005.27,0004.46
2022-12-18 11:48:00,,0819.3,4.99,0.00,21.7,20.0,00.0,30.7,23.4,06.3,0000.0,0012.21,0005.32,0004.52
2022-12-18 11:49:00,,0819.2,5.03,0.00,21.7,20.0,00.0,30.7,23.4,06.2,0000.0,0012.30,0005.34,0004.52
2022-12-18 11:50:00,,0819.3,4.99,0.00,21.7,20.7,00.0,30.6,23.5,06.1,0000.0,0012.37,0005.32,0004.48
2022-12-18 11:51:00,,0819.4,5.00,0.00,21.9,21.8,00.0,30.6,23.8,06.1,0000.0,0012.10,0005.30,0004.47
2022-12-18 11:52:00,,0819.4,4.98,0.00,22.0,22.2,00.0,30.6,24.0,06.0,0000.0,0012.69,0005.27,0004.46
2022-12-18 11:53:00,,0819.4,5.03,0.00,22.0,21.7,00.0,30.7,23.9,06.0,0000.0,0012.62,0005.25,0004.44
2022-12-18 11:54:00,,0819.2,4.97,0.00,22.0,21.4,00.0,30.7,23.8,05.9,0000.0,0013.25,0005.18,0004.38
2022-12-18 11:55:00,,0819.3,5.04,0.00,22.0,21.1,00.0,30.7,23.8,05.9,0000.0,0012.32,0005.12,0004.32
2022-12-18 11:56:00,,0819.2,4.96,0.00,22.0,20.8,00.0,30.8,23.7,05.8,0000.0,0012.07,0005.11,0004.26
2022-12-18 11:57:00,,0819.3,5.02,0.00,21.9,20.6,00.0,30.8,23.6,05.8,0000.0,0012.24,0005.06,0004.18
2022-12-18 11:58:00,,0819.2,5.02,0.00,21.9,20.4,00.0,30.7,23.5,05.8,0000.0,0011.82,0005.00,0004.10
2022-12-18 11:59:00,,0819.3,4.95,0.00,21.8,20.2,00.0,30.7,23.4,05.4,0000.0,0011.79,0004.81,0003.94
